Find GPS II-2

NORAD ID: 20061 Int'l Des: 1989-044 Owner: AFSSD2 Country: US Constellation: GPS operational
MEOCIRCULAR

Live Position

Loading 3D Globe...

About GPS II-2

Description loading...

Upcoming Passes

Passes for default location (London). Set your location on the main map for personalized predictions.

Altitude History

Loading altitude history...

Two-Line Element Set

1 20061U 89044A 26105.88657993 -.00000008 00000-0 00000-0 0 9992
2 20061 53.3379 241.9715 0027056 208.3001 151.0278 1.88858238260603
Epoch: Apr 15, 2026 • Age: 13 hours

Current Status

Altitude 21338.3 km
Velocity 3.79 km/s
Sub-Earth Point 6.23°N, 112.16°W
Launch Date Jun 10, 1989
Age 36.8 years
Type navigation

Technical Details

Classification Payload
Mass 776.00 kg
Dry Mass 776.00 kg
Total Mass 1667.00 kg
Length 2.40 m
Diameter 1.80 m
Span 5.30 m
Shape Box + 2 Pan
Manufacturer RWISB
Bus Type GPS II
Phase Status In Orbit
Owner/State AFSSD2/US

Most Searched